Regional Weather Roundup
Issued by NWS Cleveland, OH

Home | Current Version | Previous Version | Text Only | Print | Product List | Glossary Off
Versions: 1 2 3 4 5 6 7 8 9 10 11 12 13 14 15 16 17 18 19 20 21 22 23 24 25 26 27 28 29 30 31 32 33 34 35 36 37 38 39 40 41 42 43 44 45 46 47 48 49 50

000
ASUS41 KCLE 251310
RWRCLE
OHIO REGIONAL WEATHER ROUNDUP
NATIONAL WEATHER SERVICE WILMINGTON, OH
900 AM EDT SAT APR 25 2015

NOTE: "FAIR" INDICATES FEW OR NO CLOUDS BELOW 12,000 FEET WITH NO
SIGNIFICANT WEATHER AND/OR OBSTRUCTIONS TO VISIBILITY.

OHZ001>008-015>018-024>027-034-035-043-044-251400-
   NORTHWEST OHIO

CITY           SKY/WX    TMP DP  RH WIND       PRES   REMARKS
DEFIANCE       CLOUDY    42  38  85 E12       29.89F
FINDLAY        CLOUDY    43  36  76 E14       29.88S
TOLEDO EXPRESS CLOUDY    42  39  89 E8        29.90S
TOLEDO EXEC    CLOUDY    43  38  82 E6        29.92S
LIMA           CLOUDY    43  34  70 E16       29.87R
$$

OHZ009>014-019>023-028>033-038-089-251400-
   NORTHEAST OHIO

CITY           SKY/WX    TMP DP  RH WIND       PRES   REMARKS
CLE-HOPKINS    PTSUNNY   40  36  86 E8        29.95F
CLE-LAKEFRONT  CLOUDY    43  33  68 E5        29.93F
CUY CO. ARPT   CLOUDY    43  32  65 E7        29.93F
LORAIN-ELYRIA  CLOUDY    40  39  97 SE9       29.92S
ASHTABULA      CLOUDY    38  27  64 E5        29.95F
AKRON-CANTON   LGT RAIN  39  34  82 E7        29.93S
WOOSTER        CLOUDY    39  35  86 SE8       29.92S
MANSFIELD      CLOUDY    39  36  89 E15       29.89F
YOUNGSTOWN     CLOUDY    39  27  62 CALM      29.93F
$$

OHZ042-051>053-060>062-070>072-077>081-251400-
  SOUTHWEST OHIO

CITY           SKY/WX    TMP DP  RH WIND       PRES   REMARKS
CINC-COVINGTON CLOUDY    48  41  76 E12       29.76F
CINC-LUNKEN    CLOUDY    48  41  76 SE7       29.80F
HAMILTON       CLOUDY    52  36  54 VRB7      29.79F
DAYTON         LGT RAIN  49  36  61 E8        29.82S
WRIGHT-PAT AFB CLOUDY    49  33  54 E12       29.81F
DAYTON GENERAL CLOUDY    50  31  48 E8        29.79F
WILMINGTON     CLOUDY    49  32  52 E9        29.80F
$$

OHZ036-037-039>041-045>050-054>059-063>069-073>076-082>088-251400-
  CENTRAL AND SOUTHEAST OHIO

CITY           SKY/WX    TMP DP  RH WIND       PRES   REMARKS
COLUMBUS       CLOUDY    45  24  43 E12G25    29.87R
OSU AIRPORT    CLOUDY    45  25  45 E16       29.86S
BOLTON FIELD   CLOUDY    46  27  46 E14       29.85F
RICKENBACK AFB CLOUDY    45  27  48 E16       29.84F
NEWARK         CLOUDY    46  23  40 E9G22     29.87F
MARION         CLOUDY    43  32  65 E14       29.90R
LANCASTER      CLOUDY    45  27  49 E12       29.86F
ZANESVILLE     CLOUDY    43  24  47 E12       29.89F
NEW PHILLY     CLOUDY    42  34  73 E7        29.94S
$$



USA.gov is the U.S. government's official web portal to all federal, state and local government web resources and services.